Cosmos 468 Rocket - Orbit

View from above orbital plane
View from above orbital plane
View from above satellite
View from above satellite

Ground track
Ground track

The orbit data is extracted from the following two-line orbital elements,

1 05707U 71114B   13144.03785865  .00000296  00000-0  10601-3 0  1033
2 05707 074.0286 305.3637 0025141 008.0133 122.0552 14.38125832169250
Epoch (UTC): 24 May 2013 00:54:30
Eccentricity: 0.0025141
inclination: 74.0286°
perigee height: 747 km
apogee height: 782 km
right ascension of ascending node: 305.3637°
argument of perigee: 8.0133°
revolutions per day: 14.38125832
mean anomaly at epoch: 122.0552°
orbit number at epoch: 16925

The dashed part of the orbit path shows where the satellite is in the earth's shadow,  

Developed and maintained by Chris Peat, Heavens-Above GmbH. Please read the updated FAQ before sending e-mail. Imprint. DLR